#timestamp,LO_Frequency,Hit,StdDev 
1645268415.6,286046998.9,N
1645268435.5,286047001.2,N
1645268455.3,286046998.3,N
1645268475.1,286046998.4,N
1645268495.9,286047001.0,N
1645268515.7,286047001.2,N
1645268535.6,286046998.1,N
1645268555.4,286046998.3,N
1645268575.2,286046998.6,N
1645268595.1,286046998.3,N
1645268596.0,286046998.3,N
1645268615.8,286047000.9,N
1645268635.6,286047002.4,N
1645268655.5,286047000.9,N
1645268675.3,286047002.7,N
1645268695.1,286047001.1,N
1645268715.9,286047001.2,N
1645268735.7,286047002.5,N
1645268755.6,286047002.3,N
1645268775.4,286047002.2,N
1645268795.2,286047001.8,N
1645268815.1,286046999.9,N
1645268816.0,286046999.9,N
1645268835.8,286047002.8,N
1645268855.7,286047002.8,N
1645268875.5,286047000.2,N
1645268895.3,286047004.4,N
1645268915.2,286047001.7,N
1645268935.0,286047002.0,N
1645268935.9,286047002.0,N
1645268955.7,286047001.6,N
1645268975.6,286047001.4,N
1645268995.4,286047002.0,N
1645269015.3,286047002.6,N
1645269035.1,286047002.5,N
1645269036.0,286047002.5,N
1645269055.8,286047000.8,N
1645269075.7,286047001.0,N
1645269095.5,286046999.9,N
1645269115.4,286047000.3,N
1645269135.2,286047002.6,N
1645269155.0,286047001.9,N
1645269155.9,286047001.9,N
1645269175.8,286047002.1,N
1645269195.6,286047000.1,N
1645269215.4,286047000.1,N
1645269235.3,286047000.2,N
1645269255.1,286047000.1,N
1645269275.9,286046999.7,N
1645269295.7,286047001.2,N
1645269315.5,286047000.3,N
1645269335.4,286047000.4,N
1645269355.2,286047000.6,N
1645269375.1,286047000.3,N
1645269376.0,286047000.3,N
1645269395.8,286047000.7,N
1645269415.6,286047002.4,N
1645269435.5,286047002.7,N
1645269455.3,286047000.5,N
1645269475.1,286047000.0,N
1645269495.9,286046999.7,N
1645269515.7,286047002.4,N
1645269535.6,286046999.7,N
1645269555.4,286047002.6,N
1645269575.2,286047000.5,N
1645269595.1,286047000.3,N
1645269596.0,286047000.3,N
1645269615.8,286047002.3,N
1645269635.7,286047003.9,Y
1645269655.5,286047002.7,P
1645269675.3,286047000.1,N
1645269695.2,286047002.0,N
1645269715.9,286047002.2,N
1645269735.7,286047000.9,N
1645269755.6,286047001.3,N
1645269775.4,286047001.3,N
1645269795.3,286047001.7,N
1645269815.1,286047003.6,Y
1645269835.9,286047001.3,P
1645269855.7,286047002.6,P
1645269875.5,286047002.1,P
1645269895.4,286047002.6,Y
1645269915.2,286046999.0,P
1645269935.0,286046997.0,N
1645269935.9,286046997.0,N
1645269955.8,286046998.4,N
1645269975.6,286046999.5,N
1645269995.5,286046997.0,N
1645270015.3,286046996.9,N
1645270035.1,286046997.2,N
1645270055.9,286046995.2,Y
1645270075.7,286046997.3,P
1645270095.6,286047000.8,N
1645270115.4,286047000.0,N
1645270135.2,286047000.5,N
1645270155.1,286046998.5,N
1645270156.0,286046998.5,N
1645270175.8,286047000.6,N
1645270195.6,286046998.6,N
1645270215.5,286046996.5,N
1645270235.3,286046997.3,N
1645270255.2,286046999.2,N
1645270275.9,286046996.5,N
1645270295.7,286046996.9,N
1645270315.6,286046996.9,N
1645270335.4,286047001.1,N
1645270355.2,286047000.5,N
1645270375.1,286047002.8,N
1645270376.0,286047002.8,N
1645270395.8,286047000.4,N
1645270415.7,286047000.2,N
1645270435.5,286047000.3,N
1645270455.3,286047000.0,N
1645270475.2,286047000.2,N
1645270495.0,286047000.1,N
1645270495.9,286047000.1,N
1645270515.7,286047000.2,N
1645270535.6,286046998.6,N
1645270555.4,286046998.4,N
1645270575.3,286047000.7,N
1645270595.1,286047000.7,N
1645270596.0,286047000.7,N
1645270615.8,286047002.8,N
1645270635.7,286047000.0,N
1645270655.5,286046998.6,N
1645270675.3,286047001.1,N
1645270695.2,286046998.8,N
1645270715.0,286046999.5,N
1645270715.9,286046999.5,N
1645270735.8,286046998.9,N
1645270755.6,286046998.5,N
1645270775.4,286046998.2,N
1645270795.3,286046998.4,N
1645270815.1,286047000.9,N
1645270835.9,286046998.6,N
1645270855.7,286046998.6,N
1645270875.5,286046998.3,N
1645270895.4,286046999.4,N
1645270915.2,286046996.8,N
1645270935.0,286046999.3,N
1645270935.9,286046999.3,N
1645270955.8,286046999.4,N
1645270975.6,286046996.7,N
1645270995.5,286046997.0,N
1645271015.3,286046999.1,N
1645271035.1,286046999.5,N
1645271055.9,286046996.6,N
1645271075.7,286046999.3,N
1645271095.5,286046998.9,N
1645271115.4,286046998.7,N
1645271135.2,286047000.3,N
1645271155.1,286047000.3,N
1645271156.0,286047000.3,N
1645271175.8,286047001.0,N
1645271195.6,286046998.2,N
1645271215.5,286046998.8,N
1645271235.3,286046998.5,N
1645271255.1,286046998.4,N
1645271275.9,286046999.3,N
1645271295.7,286046999.0,N
1645271315.6,286046999.5,N
1645271335.4,286046999.0,N
1645271355.3,286046996.7,Y
1645271375.1,286046999.5,P
1645271376.0,286046999.5,N
1645271395.8,286046998.7,P
1645271415.7,286046997.0,Y
1645271435.5,286046999.5,P
1645271455.4,286046999.4,P
1645271475.2,286046998.2,P
1645271495.0,286046999.2,N
1645271495.9,286046999.2,N
1645271515.8,286046999.1,N
1645271535.6,286046999.0,N
1645271555.5,286046997.4,Y
1645271575.3,286047001.0,P
1645271595.1,286046998.2,N
1645271615.9,286046998.6,N
1645271635.7,286046999.3,N
1645271655.5,286046999.3,N
1645271675.4,286046999.8,N
1645271695.2,286047002.8,Y
1645271715.1,286047002.2,P
1645271716.0,286047002.2,N
1645271735.8,286046999.9,N
1645271755.6,286047002.4,N
1645271775.5,286047000.5,N
1645271795.3,286047000.3,N
1645271815.1,286047002.8,N
1645271835.9,286047002.6,N
1645271855.7,286047002.7,N
1645271875.6,286047000.6,N
1645271895.4,286046998.4,N
1645271915.2,286046998.3,N
1645271935.1,286046999.1,N
1645271936.0,286046999.1,N
1645271955.8,286046996.6,N
1645271975.6,286046998.9,N
1645271995.5,286046998.2,N
